Weather History for Thermopolis, WY

Change the Weather History Date:

Wednesday, January 22, 2014

  Actual Average (KWRL) Record (KWRL)
Temperature  
Mean Temperature 23 °F 18 °F  
Max Temperature 32 °F 31 °F 61 °F (1981)
Min Temperature 14 °F 4 °F -38 °F (1962)
Degree Days  
Heating Degree Days 42 47  
Month to date heating degree days 1065  
Since 1 July heating degree days 4428  
Cooling Degree Days 0 0  
Month to date cooling degree days 0  
Year to date cooling degree days 0  
Moisture  
Dew Point 16 °F    
Average Humidity 70    
Maximum Humidity 100    
Minimum Humidity 35    
Precipitation  
Precipitation 0.00 in 0.01 in 0.29 in (1979)
Month to date precipitation 0.17  
Year to date precipitation 0.17  
Sea Level Pressure  
Sea Level Pressure 30.18 in    
Wind  
Wind Speed 15 mph (NW)    
Max Wind Speed 34 mph    
Max Gust Speed 38 mph    
Visibility 8 miles    
Events Snow    
T = Trace of Precipitation, MM = Missing Value Source: NWS Daily Summary

Daily Weather History Graph

Daily Weather History Graph

Search for Another Location

Airport:

Trip Planner

Search our weather history database for the weather conditions in past years. The results will help you decide how hot, cold, wet, or windy it might be!

Date:

Astronomy

Jan. 22, 2014 Rise Set
Actual Time 7:38 AM MST 5:11 PM MST
Civil Twilight 7:07 AM MST 5:42 PM MST
Nautical Twilight 6:32 AM MST 6:17 PM MST
Astronomical Twilight 5:58 AM MST 6:51 PM MST
Moon No Moon Rise 10:28 AM MST (1/22)
Length of Visible Light 10h 35m
Length of Day
9h 33m
Waning Gibbous, 65% of the Moon is Illuminated
Jan 22
Waning Gibbous
Jan 23
Last Quarter
Jan 30
New
Feb 6
First Quarter
Feb 14
Full

Hourly Weather History & Observations

Time (MST) Temp. Windchill Dew Point Humidity Pressure Visibility Wind Dir Wind Speed Gust Speed Precip Events Conditions
12:15 AM 32.0 °F 23.6 °F 6.8 °F 35% 30.24 in 10.0 mi North 10.4 mph - N/A   Clear
12:35 AM 32.0 °F 23.6 °F 8.6 °F 38% 30.24 in 10.0 mi NNW 10.4 mph - N/A   Clear
12:55 AM 32.0 °F 23.6 °F 8.6 °F 38% 30.23 in 10.0 mi NNW 10.4 mph - N/A   Clear
1:15 AM 32.0 °F 22.5 °F 8.6 °F 38% 30.23 in 10.0 mi NNW 12.7 mph - N/A   Clear
1:35 AM 32.0 °F 23.6 °F 10.4 °F 41% 30.22 in 10.0 mi NNW 10.4 mph - N/A   Clear
1:55 AM 32.0 °F 22.1 °F 10.4 °F 41% 30.21 in 10.0 mi NNW 13.8 mph - N/A   Clear
2:15 AM 30.2 °F 19.3 °F 10.4 °F 44% 30.21 in 10.0 mi NNW 15.0 mph - N/A   Clear
2:35 AM 32.0 °F 21.6 °F 10.4 °F 41% 30.21 in 10.0 mi NNW 15.0 mph - N/A   Clear
2:55 AM 30.2 °F 19.3 °F 10.4 °F 44% 30.21 in 10.0 mi NW 15.0 mph - N/A   Clear
3:15 AM 30.2 °F 19.3 °F 10.4 °F 44% 30.20 in 10.0 mi NW 15.0 mph - N/A   Clear
3:35 AM 30.2 °F 18.9 °F 10.4 °F 44% 30.20 in 10.0 mi NW 16.1 mph - N/A   Clear
3:55 AM 30.2 °F 18.9 °F 10.4 °F 44% 30.20 in 10.0 mi NW 16.1 mph - N/A   Clear
4:15 AM 30.2 °F 19.3 °F 10.4 °F 44% 30.20 in 10.0 mi NW 15.0 mph - N/A   Clear
4:35 AM 30.2 °F 20.8 °F 10.4 °F 44% 30.19 in 10.0 mi WNW 11.5 mph - N/A   Clear
4:55 AM 30.2 °F 19.8 °F 12.2 °F 47% 30.18 in 10.0 mi WNW 13.8 mph - N/A   Clear
5:15 AM 30.2 °F 19.8 °F 12.2 °F 47% 30.18 in 10.0 mi NW 13.8 mph - N/A   Clear
5:35 AM 30.2 °F 19.3 °F 12.2 °F 47% 30.19 in 10.0 mi NW 15.0 mph - N/A   Clear
5:55 AM 28.4 °F 17.5 °F 12.2 °F 51% 30.19 in 10.0 mi NW 13.8 mph - N/A   Clear
6:15 AM 28.4 °F 17.0 °F 12.2 °F 51% 30.18 in 10.0 mi NW 15.0 mph - N/A   Clear
6:35 AM 28.4 °F 16.6 °F 12.2 °F 51% 30.18 in 10.0 mi NW 16.1 mph - N/A   Clear
6:55 AM 28.4 °F 17.5 °F 12.2 °F 51% 30.18 in 10.0 mi NW 13.8 mph - N/A   Scattered Clouds
7:15 AM 28.4 °F 17.5 °F 12.2 °F 51% 30.18 in 10.0 mi NW 13.8 mph - N/A   Scattered Clouds
7:35 AM 28.4 °F 18.0 °F 12.2 °F 51% 30.18 in 10.0 mi NW 12.7 mph - N/A   Scattered Clouds
7:55 AM 26.6 °F 16.2 °F 12.2 °F 55% 30.17 in 10.0 mi NW 11.5 mph - N/A   Mostly Cloudy
8:15 AM 28.4 °F 18.5 °F 12.2 °F 51% 30.16 in 10.0 mi NW 11.5 mph - N/A   Mostly Cloudy
8:35 AM 28.4 °F 19.1 °F 14.0 °F 55% 30.16 in 10.0 mi NW 10.4 mph - N/A   Overcast
8:55 AM 28.4 °F 18.5 °F 14.0 °F 55% 30.16 in 10.0 mi NW 11.5 mph - N/A   Overcast
9:15 AM 28.4 °F 19.7 °F 14.0 °F 55% 30.16 in 10.0 mi NW 9.2 mph - N/A   Overcast
9:35 AM 28.4 °F 22.2 °F 14.0 °F 55% 30.16 in 10.0 mi NW 5.8 mph - N/A   Overcast
9:55 AM 28.4 °F 24.6 °F 14.0 °F 55% 30.16 in 10.0 mi NNW 3.5 mph - N/A   Overcast
10:15 AM 28.4 °F 21.2 °F 14.0 °F 55% 30.16 in 10.0 mi NNW 6.9 mph - N/A   Overcast
10:35 AM 28.4 °F 21.2 °F 14.0 °F 55% 30.16 in 10.0 mi NW 6.9 mph - N/A   Overcast
10:55 AM 28.4 °F 19.7 °F 15.8 °F 59% 30.16 in 10.0 mi NW 9.2 mph - N/A   Overcast
11:15 AM 28.4 °F 21.2 °F 15.8 °F 59% 30.15 in 10.0 mi NNW 6.9 mph - N/A   Overcast
11:35 AM 26.6 °F 20.0 °F 17.6 °F 69% 30.15 in 10.0 mi NNW 5.8 mph - N/A   Overcast
11:55 AM 28.4 °F 18.5 °F 17.6 °F 64% 30.14 in 10.0 mi NNW 11.5 mph - N/A   Overcast
12:15 PM 26.6 °F 15.7 °F 17.6 °F 69% 30.12 in 10.0 mi NNW 12.7 mph - N/A   Overcast
12:35 PM 26.6 °F 16.8 °F 17.6 °F 69% 30.12 in 10.0 mi NNW 10.4 mph - N/A   Overcast
12:55 PM 26.6 °F 15.2 °F 17.6 °F 69% 30.12 in 10.0 mi NNW 13.8 mph - N/A   Overcast
1:15 PM 26.6 °F 14.7 °F 19.4 °F 74% 30.10 in 10.0 mi NNW 15.0 mph - N/A   Overcast
1:35 PM 26.6 °F 14.3 °F 19.4 °F 74% 30.10 in 10.0 mi NNW 16.1 mph - N/A   Overcast
1:55 PM 24.8 °F 11.9 °F 19.4 °F 80% 30.09 in 10.0 mi NNW 16.1 mph - N/A   Overcast
2:15 PM 23.0 °F 9.2 °F 19.4 °F 86% 30.09 in 10.0 mi NW 17.3 mph - N/A   Overcast
2:35 PM 21.2 °F 7.3 °F 21.2 °F 100% 30.10 in 3.0 mi NW 16.1 mph - N/A Snow Light Snow
2:55 PM 21.2 °F 7.3 °F 21.2 °F 100% 30.10 in 0.2 mi NW 16.1 mph - N/A Snow Snow
3:15 PM 21.2 °F 6.8 °F 21.2 °F 100% 30.10 in 0.2 mi NW 17.3 mph - N/A Snow Light Snow
3:35 PM 23.0 °F 8.7 °F 21.2 °F 93% 30.12 in 0.2 mi NNW 18.4 mph - N/A Snow Light Snow
3:55 PM 23.0 °F 8.3 °F 21.2 °F 93% 30.12 in 0.2 mi NW 19.6 mph - N/A Snow Light Snow
4:15 PM 23.0 °F 8.3 °F 21.2 °F 93% 30.12 in 0.2 mi NW 19.6 mph - N/A Snow Snow
4:35 PM 23.0 °F 8.7 °F 21.2 °F 93% 30.13 in 0.2 mi NW 18.4 mph - N/A Snow Light Snow
4:55 PM 23.0 °F 8.3 °F 21.2 °F 93% 30.14 in 0.2 mi NW 19.6 mph - N/A Snow Light Snow
5:15 PM 23.0 °F 8.7 °F 21.2 °F 93% 30.15 in 0.2 mi NW 18.4 mph - N/A Snow Light Snow
5:35 PM 23.0 °F 9.2 °F 21.2 °F 93% 30.16 in 0.2 mi WNW 17.3 mph - N/A Snow Heavy Snow
5:55 PM 23.0 °F 8.7 °F 21.2 °F 93% 30.16 in 0.2 mi WNW 18.4 mph - N/A Snow Snow
6:15 PM 23.0 °F 8.0 °F 21.2 °F 93% 30.16 in 0.2 mi NW 20.7 mph - N/A Snow Snow
6:35 PM 23.0 °F 8.3 °F 21.2 °F 93% 30.17 in 0.2 mi NW 19.6 mph - N/A Snow Snow
6:55 PM 23.0 °F 8.3 °F 21.2 °F 93% 30.18 in 0.2 mi NW 19.6 mph - N/A Snow Light Snow
7:15 PM 23.0 °F 7.2 °F 21.2 °F 93% 30.18 in - NW 23.0 mph - N/A   Overcast
7:35 PM 21.2 °F 4.5 °F 19.4 °F 93% 30.18 in - NW 24.2 mph - N/A   Overcast
7:55 PM 21.2 °F 4.5 °F 19.4 °F 93% 30.18 in - NW 24.2 mph - N/A   Overcast
8:15 PM 21.2 °F 4.2 °F 19.4 °F 93% 30.19 in - NW 25.3 mph - N/A   Overcast
8:35 PM 21.2 °F - 19.4 °F 93% 30.20 in - North - - N/A   Overcast
8:55 PM 21.2 °F 3.5 °F 19.4 °F 93% 30.20 in - NW 27.6 mph - N/A   Overcast
9:15 PM 21.2 °F 3.3 °F 19.4 °F 93% 30.21 in - NW 28.8 mph - N/A   Overcast
9:35 PM 21.2 °F 3.5 °F 19.4 °F 93% 30.22 in - NW 27.6 mph - N/A   Overcast
9:55 PM 21.2 °F 2.2 °F 19.4 °F 93% 30.23 in - WNW 33.4 mph 38.0 mph N/A   Overcast
10:15 PM 19.4 °F -0.6 °F 17.6 °F 93% 30.23 in - NW 34.5 mph - N/A   Overcast
10:35 PM 17.6 °F -3.1 °F 15.8 °F 93% 30.23 in - WNW 34.5 mph - N/A   Overcast
10:55 PM 15.8 °F -5.5 °F 14.0 °F 93% 30.24 in - WNW 34.5 mph - N/A   Unknown
11:15 PM 14.0 °F -6.2 °F 12.2 °F 93% 30.26 in - NW 27.6 mph - N/A   Mostly Cloudy
11:35 PM 14.0 °F -6.2 °F 12.2 °F 93% 30.27 in - NW 27.6 mph - N/A   Overcast
11:55 PM 14.0 °F -6.8 °F 12.2 °F 93% 30.27 in - NW 29.9 mph - N/A   Overcast